Home   Weather   Passo Fundo   Past weeks
Flag for Brazil

Past Weather in Passo Fundo, Rio Grande do Sul, Brazil — Yesterday and Last 2 Weeks

Now
91 °F

Passing clouds.


Feels Like: 99 °F
Forecast: 84 / 65 °F
Wind: 12 mph from West

Location: Porto Alegre Aero-Porto

Current Time: Jan 23, 2019 at 3:57:47 pm

Latest Report: Jan 23, 2019 at 3:00 pm


Visibility: N/A

Pressure: 29.92 "Hg (27.73 "Hg at 680m altitude)

Humidity: 52%

Dew Point: 72 °F

Location of Passo FundoLocation

Past Weather in Passo Fundo — Graph

°F

Passo Fundo Temperature Yesterday

Maximum temperature yesterday: 91 °F (at 4:00 pm)
Minimum temperature yesterday: 70 °F (at 4:00 am)
Average temperature yesterday: 80 °F

High & Low Weather Summary for the Past Weeks

 TemperatureHumidityPressure
High93 °F (Jan 13, 4:00 pm)100% (Jan 13, 2:00 am)30.07 "Hg (Jan 13, 2:00 am)
Low68 °F (Jan 19, 11:00 pm)23% (Jan 19, 4:00 pm)29.74 "Hg (Jan 10, 5:00 am)
Average78 °F80%29.92 "Hg
* Reported Jan 8 2:00 pm — Jan 23 2:00 pm, Passo Fundo. Weather by CustomWeather, © 2019

Note: Actual official high and low records may vary slightly from our data, if they occured in-between our weather recording intervals... More about our weather records

Advertising

Passo Fundo Weather History for the Previous 24 Hours

Scroll right to see more
 ConditionsComfort  
Time TempWeatherWind HumidityBarometerVisibility
2:00 pm
Wed, Jan 23
90 °FPassing clouds.7 mph55%29.92 "HgN/A
1:00 pm90 °FSunny.7 mph63%29.95 "Hg10 mi
12:00 pm88 °FSunny.7 mph66%29.95 "Hg10 mi
11:00 am88 °FSunny.3 mph62%29.95 "Hg10 mi
10:00 am82 °FSunny.2 mph74%29.95 "Hg10 mi
9:00 am79 °FPassing clouds.5 mph84%29.95 "HgN/A
8:00 am75 °FClear.3 mph89%29.95 "Hg6 mi
7:00 am73 °FSunny.1 mph94%29.95 "Hg10 mi
6:00 am73 °FClear.5 mph94%29.92 "Hg10 mi
5:00 am73 °FClear.2 mph94%29.92 "Hg5 mi
4:00 am75 °FClear.3 mph89%29.92 "Hg10 mi
3:00 am75 °FClear.2 mph89%29.92 "Hg10 mi
2:00 am75 °FClear.2 mph89%29.92 "Hg10 mi
1:00 am75 °FClear.7 mph94%29.92 "Hg10 mi
12:00 am75 °FClear.7 mph89%29.92 "Hg10 mi
11:00 pm
Tue, Jan 22
77 °FClear.9 mph89%29.92 "Hg10 mi
10:00 pm79 °FClear.12 mph84%29.92 "Hg10 mi
9:00 pm81 °FClear.13 mph74%29.92 "Hg10 mi
8:00 pm82 °FSunny.17 mph66%29.92 "Hg10 mi
7:00 pm86 °FSunny.16 mph62%29.89 "Hg10 mi
6:00 pm91 °FPassing clouds.12 mph49%29.89 "HgN/A
5:00 pm91 °FPassing clouds.6 mph52%29.92 "HgN/A
4:00 pm91 °FSunny.7 mph49%29.92 "Hg10 mi
3:00 pm90 °FPassing clouds.7 mph49%29.95 "HgN/A
Weather by CustomWeather, © 2019

See weather overview